EW4858 Weather Reports


Display with metric or nautical units.
time (UTC)temp
F
wind
direction
speed
MPH
gust
MPH
rain 1hr
in
rain 24hr
in
rain mn
in
humidity
%
barometer
mb
20260510123052 58 252 0.0 0.0 0.00 0.00 0.00 89 1008.4
20260510121551 58 252 0.0 1.0 0.00 0.00 0.00 89 1008.4
20260510120049 57 252 0.0 4.0 0.00 0.00 0.00 89 1008.3
20260510114550 58 252 1.0 4.0 0.00 0.00 0.00 89 1008.2
20260510113049 58 252 0.0 3.0 0.00 0.00 0.00 89 1008.2
20260510111548 58 252 3.0 5.0 0.00 0.00 0.00 89 1008.3
20260510110046 58 248 0.0 5.0 0.00 0.00 0.00 89 1008.3
20260510104553 58 247 1.0 4.0 0.00 0.00 0.00 89 1008.3
20260510103044 58 245 0.0 4.0 0.00 0.00 0.00 88 1008.4
20260510101543 58 232 0.0 0.0 0.00 0.00 0.00 88 1008.4
20260510100041 59 210 0.0 0.0 0.00 0.00 0.00 89 1008.5
20260510094541 59 210 0.0 3.0 0.00 0.00 0.00 88 1008.6
20260510093039 59 189 0.0 2.0 0.00 0.00 0.00 88 1008.5
20260510091539 59 290 0.0 3.0 0.00 0.00 0.00 88 1008.6
20260510090038 59 329 0.0 0.0 0.00 0.00 0.00 88 1008.7
20260510084537 59 254 0.0 0.0 0.00 0.00 0.00 88 1008.8
20260510083041 59 254 0.0 4.0 0.00 0.00 0.00 87 1008.8
20260510081535 59 254 0.0 0.0 0.00 0.00 0.00 87 1008.8
20260510080032 59 254 0.0 0.0 0.00 0.00 0.00 87 1008.9
20260510074531 59 254 0.0 3.0 0.00 0.00 0.00 87 1009.0
20260510073032 59 254 0.0 4.0 0.00 0.00 0.00 87 1009.1
20260510071530 59 273 0.0 0.0 0.00 0.00 0.00 87 1009.2
20260510070032 59 273 0.0 0.0 0.00 0.00 0.00 87 1009.2
20260510064533 60 276 0.0 0.0 0.00 0.00 0.00 87 1009.3
20260510063025 60 276 2.0 4.0 0.00 0.00 0.00 86 1009.4
20260510061525 60 321 0.0 3.0 0.00 0.00 0.00 86 1009.3
20260510060026 60 321 0.0 3.0 0.00 0.00 0.00 86 1009.5
20260510054523 60 355 0.0 3.0 0.00 0.00 0.00 86 1009.5
20260510053026 60 355 0.0 3.0 0.00 0.00 0.00 86 1009.4
20260510051522 60 355 0.0 3.0 0.00 0.00 0.00 85 1009.4
20260510050026 60 355 0.0 4.0 0.00 0.00 0.00 84 1009.4
20260510044520 61 355 1.0 5.0 0.00 0.00 0.00 83 1009.3
20260510043020 61 343 1.0 4.0 0.00 0.00 0.00 82 1009.2
20260510041518 62 19 0.0 3.0 0.00 0.00 0.00 81 1009.0
20260510040018 62 19 0.0 4.0 0.00 0.00 0.00 81 1008.9
20260510034525 63 19 0.0 0.0 0.00 0.00 0.00 80 1008.7
20260510033022 63 19 0.0 0.0 0.00 0.00 0.00 78 1008.5
20260510031519 64 21 0.0 5.0 0.00 0.00 0.00 77 1008.2
20260510030023 64 21 0.0 4.0 0.00 0.00 0.00 76 1008.1
20260510024515 65 5 0.0 4.0 0.00 0.00 0.00 75 1008.1
20260510023015 66 18 2.0 5.0 0.00 0.00 0.00 72 1007.9
20260510021523 67 36 3.0 7.0 0.00 0.00 0.00 70 1007.9
20260510020015 69 28 3.0 7.0 0.00 0.00 0.00 67 1007.7
20260510014514 71 28 4.0 9.0 0.00 0.00 0.00 64 1007.7
20260510013014 72 61 4.0 11.0 0.00 0.00 0.00 62 1007.7
20260510011516 73 49 4.0 11.0 0.00 0.00 0.00 59 1007.5
20260510010013 74 343 4.0 9.0 0.00 0.00 0.00 57 1007.5
20260510004513 75 51 3.0 7.0 0.00 0.00 0.00 56 1007.4
20260510003014 75 46 5.0 10.0 0.00 0.00 0.00 55 1007.4
20260510001512 75 40 2.0 8.0 0.00 0.00 0.00 54 1007.4
20260510000011 75 30 1.0 7.0 0.00 0.00 0.00 54 1007.3
20260509234523 74 45 2.0 8.0 0.00 0.00 0.00 56 1007.5
20260509233011 74 32 4.0 9.0 0.00 0.00 0.00 56 1007.3
20260509231515 75 17 5.0 11.0 0.00 0.00 0.00 56 1007.5
20260509230007 75 40 4.0 10.0 0.00 0.00 0.00 56 1007.6
20260509224517 75 336 5.0 11.0 0.00 0.00 0.00 56 1007.7
20260509223006 75 327 4.0 8.0 0.00 0.00 0.00 56 1007.8
20260509221505 75 34 4.0 11.0 0.00 0.00 0.00 57 1008.0
20260509220003 76 37 6.0 10.0 0.00 0.00 0.00 56 1008.0
20260509214502 76 38 5.0 12.0 0.00 0.00 0.00 56 1008.0
20260509213101 76 51 5.0 14.0 0.00 0.00 0.00 57 1008.1
20260509211559 76 53 7.0 11.0 0.00 0.00 0.00 56 1008.3
20260509210104 76 71 6.0 12.0 0.00 0.00 0.00 56 1008.3
20260509204607 77 54 6.0 13.0 0.00 0.00 0.00 55 1008.3
20260509203115 77 73 6.0 14.0 0.00 0.00 0.00 55 1008.3
20260509201557 78 46 5.0 11.0 0.00 0.00 0.00 54 1008.3
20260509200056 78 14 6.0 12.0 0.00 0.00 0.00 54 1008.2
20260509194555 79 345 5.0 9.0 0.00 0.00 0.00 53 1008.2
20260509193055 79 36 5.0 9.0 0.00 0.00 0.00 53 1008.4
20260509191551 78 47 5.0 8.0 0.00 0.00 0.00 53 1008.4
20260509190049 78 75 1.0 8.0 0.00 0.00 0.00 55 1008.5
20260509184549 77 70 3.0 9.0 0.00 0.00 0.00 56 1008.6
20260509183041 76 89 2.0 9.0 0.00 0.00 0.00 58 1008.7
20260509181549 75 107 2.0 7.0 0.00 0.00 0.00 60 1009.0
20260509180100 74 74 4.0 8.0 0.00 0.00 0.00 63 1009.0
20260509174531 72 183 0.0 5.0 0.00 0.00 0.00 66 1009.1
20260509173027 71 355 2.0 5.0 0.00 0.00 0.00 67 1009.2
20260509171524 70 89 0.0 3.0 0.00 0.00 0.00 68 1009.3
20260509170036 68 270 0.0 4.0 0.00 0.00 0.00 71 1009.4
20260509164517 66 49 0.0 4.0 0.00 0.00 0.00 74 1009.4
20260509163018 65 5 2.0 4.0 0.00 0.00 0.00 76 1009.5
20260509161510 64 161 0.0 4.0 0.00 0.00 0.00 79 1009.7
20260509160008 63 5 0.0 3.0 0.00 0.00 0.00 82 1009.7
20260509154505 62 348 0.0 1.0 0.00 0.00 0.00 85 1009.7
20260509153110 61 155 0.0 0.0 0.00 0.00 0.00 88 1009.8
20260509153002 60 155 0.0 0.0 0.00 0.00 0.00 88 1009.8
20260509151500 60 138 0.0 4.0 0.00 0.00 0.00 88 1009.7
20260509150100 59 300 0.0 0.0 0.00 0.00 0.00 89 1009.7
20260509144601 59 300 0.0 3.0 0.00 0.00 0.00 89 1009.8
20260509143108 59 300 0.0 4.0 0.00 0.00 0.00 90 1009.8
20260509141558 58 261 2.0 5.0 0.00 0.00 0.00 90 1009.8
20260509140057 58 258 3.0 7.0 0.00 0.00 0.00 90 1009.7
20260509134556 58 249 4.0 6.0 0.00 0.00 0.00 90 1009.7
20260509133106 59 255 4.0 6.0 0.00 0.00 0.00 90 1009.4
20260509131554 59 263 1.0 4.0 0.00 0.00 0.00 90 1009.3
20260509130056 59 278 3.0 6.0 0.00 0.00 0.00 90 1009.4
20260509124552 59 250 0.0 6.0 0.00 0.00 0.00 90 1009.4